#timestamp,LO_Frequency,Hit,StdDev 
1671102015.1,286046999.0,N
1671102016.0,286046999.0,N
1671102035.8,286046998.8,N
1671102055.7,286046998.5,N
1671102075.5,286046998.2,N
1671102095.3,286047000.6,N
1671102115.2,286047000.3,N
1671102135.0,286046999.7,N
1671102135.9,286046999.7,N
1671102155.7,286046999.8,N
1671102175.6,286047002.7,N
1671102195.4,286046999.7,N
1671102215.3,286047002.5,N
1671102235.1,286047002.7,N
1671102236.0,286047002.7,N
1671102255.8,286047001.9,N
1671102275.7,286047003.9,N
1671102295.5,286047002.0,N
1671102315.3,286047001.8,N
1671102335.2,286047001.6,N
1671102355.0,286047002.6,N
1671102355.9,286047002.6,N
1671102375.8,286047001.9,N
1671102395.6,286047002.8,N
1671102415.4,286047000.3,N
1671102435.3,286047000.0,N
1671102455.1,286047000.6,N
1671102475.8,286047002.8,N
1671102495.7,286047001.0,N
1671102515.5,286047000.1,N
1671102535.4,286047000.4,N
1671102555.2,286047000.0,N
1671102575.0,286047002.4,N
1671102575.9,286047002.4,N
1671102595.8,286047002.2,N
1671102615.6,286047002.1,N
1671102635.5,286047001.8,N
1671102655.3,286047001.6,N
1671102675.1,286047004.0,Y
1671102695.9,286047000.9,P
1671102715.7,286046998.1,P
1671102735.6,286046998.9,N
1671102755.4,286047001.1,N
1671102775.2,286046998.9,N
1671102795.1,286046996.9,N
1671102796.0,286046996.9,N
1671102815.8,286047001.2,N
1671102835.6,286046998.5,N
1671102855.5,286046999.0,N
1671102875.3,286046996.9,N
1671102895.2,286046998.9,N
1671102915.9,286046998.4,N
1671102935.7,286047000.7,N
1671102955.6,286046998.7,N
1671102975.4,286046998.3,N
1671102995.3,286047001.2,N
1671103015.1,286047001.0,N
1671103016.0,286047001.0,N
1671103035.8,286046999.1,N
1671103055.7,286046998.7,N
1671103075.5,286046998.3,N
1671103095.3,286046999.0,N
1671103115.2,286046999.1,N
1671103135.0,286046996.8,N
1671103135.9,286046996.8,N
1671103155.8,286046996.7,N
1671103175.6,286046999.0,N
1671103195.4,286046998.3,N
1671103215.3,286046999.4,N
1671103235.1,286046999.0,N
1671103255.9,286047001.2,N
1671103275.7,286047001.2,N
1671103295.5,286047001.0,N
1671103315.4,286047000.4,N
1671103335.2,286047000.8,N
1671103355.1,286046998.8,N
1671103356.0,286046998.8,N
1671103375.8,286046998.1,N
1671103395.6,286046998.5,N
1671103415.5,286046997.2,N
1671103435.3,286046999.6,N
1671103455.1,286046996.8,N
1671103475.9,286046998.3,N
1671103495.7,286046999.4,N
1671103515.6,286046999.2,N
1671103535.4,286046999.2,N
1671103555.2,286046999.5,N
1671103575.1,286046998.9,N
1671103576.0,286046998.9,N
1671103595.8,286046996.8,N
1671103615.7,286046996.6,N
1671103635.5,286046996.9,N
1671103655.3,286046996.8,N
1671103675.2,286046997.4,N
1671103695.0,286046997.3,N
1671103695.9,286046997.3,N
1671103715.8,286046997.3,N
1671103735.6,286046996.9,N
1671103755.4,286046996.9,N
1671103775.3,286046999.6,N
1671103795.1,286046999.6,N
1671103815.8,286046998.6,N
1671103835.7,286046999.4,N
1671103855.5,286046998.9,N
1671103875.4,286046998.9,N
1671103895.2,286046999.2,N
1671103915.1,286046996.6,Y
1671103916.0,286046996.6,P
1671103935.8,286047000.5,N
1671103955.7,286047000.6,N
1671103975.5,286047000.4,N
1671103995.4,286047000.6,N
1671104015.2,286047001.1,N
1671104035.0,286047000.8,N
1671104035.9,286047000.8,N
1671104055.8,286047001.0,N
1671104075.6,286047000.2,N
1671104095.4,286047001.6,N
1671104115.3,286047001.6,N
1671104135.1,286047003.3,N
1671104155.9,286047003.3,N
1671104175.7,286047004.2,N
1671104195.5,286047001.3,N
1671104215.4,286047002.0,N
1671104235.2,286047002.3,N
1671104255.0,286047000.2,N
1671104256.0,286047000.2,N
1671104275.8,286047001.2,N
1671104295.6,286047000.4,N
1671104315.5,286046998.1,N
1671104335.3,286047000.9,N
1671104355.1,286047000.6,N
1671104375.9,286047001.2,N
1671104395.7,286047001.2,N
1671104415.6,286046996.6,N
1671104435.4,286046999.5,N
1671104455.2,286046999.1,N
1671104475.1,286046998.9,N
1671104476.0,286046998.9,N
1671104495.8,286046998.5,N
1671104515.6,286047000.7,N
1671104535.5,286047000.4,N
1671104555.3,286047000.0,N
1671104575.2,286047000.0,N
1671104595.9,286046998.2,N
1671104615.7,286046998.8,N
1671104635.6,286046998.6,N
1671104655.4,286046999.4,N
1671104675.2,286046998.1,N
1671104695.1,286046998.6,N
1671104696.0,286046998.6,N
1671104715.8,286046998.5,N
1671104735.7,286047001.0,N
1671104755.5,286047000.8,N
1671104775.3,286047001.2,N
1671104795.2,286047000.7,N
1671104815.0,286047000.2,N
1671104815.9,286047000.2,N
1671104835.8,286047002.7,N
1671104855.6,286047002.8,N
1671104875.4,286047000.8,N
1671104895.3,286047000.9,N
1671104915.1,286047000.6,N
1671104935.8,286047000.7,N
1671104955.7,286047000.8,N
1671104975.5,286047000.7,N
1671104995.4,286046999.9,N
1671105015.2,286047000.7,N
1671105035.0,286047002.6,N
1671105035.9,286047002.6,N
1671105055.8,286047002.4,N
1671105075.6,286047000.4,N
1671105095.5,286047000.1,N
1671105115.3,286047000.3,N
1671105135.1,286047000.3,N
1671105155.9,286047000.0,N
1671105175.7,286047000.3,N
1671105195.5,286047002.4,N
1671105215.4,286046999.0,N
1671105235.2,286046999.0,N
1671105255.1,286046998.2,N
1671105256.0,286046998.2,N
1671105275.8,286046998.6,N
1671105295.6,286046998.6,N
1671105315.5,286047001.2,N
1671105335.3,286047000.3,N
1671105355.1,286047000.0,N
1671105375.9,286047002.4,N
1671105395.7,286047000.1,N
1671105415.6,286047000.7,N
1671105435.4,286047000.2,N
1671105455.2,286047000.9,N
1671105475.1,286046998.5,N
1671105476.0,286046998.5,N
1671105495.8,286047000.9,N
1671105515.6,286047001.2,N
1671105535.5,286047000.3,N
1671105555.3,286047001.1,N
1671105575.2,286047000.8,N
1671105595.0,286047000.5,N
1671105595.9,286047000.5,N
